• In Hungary
  • List of Countries
  • For 7 days
  • Water Temperature
  • Satellite Maps
  • Weather Map
  • News
  • Weather Widgets
  • user-avatar
    Login

    Hourly Weather Malszewko

    Today, 23 October, Tuesday

    Time Temperature Precipitation Wind Pressure Humidity
    00:00 +4°C° 0 mm 4 mps 751 mmHg 89%
    01:00 +3°C° 0 mm 4 mps 750 mmHg 91%
    02:00 +4°C° 0 mm 4 mps 750 mmHg 91%
    03:00 +4°C° 0 mm 4 mps 749 mmHg 90%
    04:00 +3°C° 0 mm 5 mps 748 mmHg 89%
    05:00 +3°C° 0.1 mm 6 mps 747 mmHg 87%
    06:00 +3°C° 0.1 mm 6 mps 746 mmHg 84%
    07:00 +3°C° 0.1 mm 7 mps 745 mmHg 82%
    08:00 +2°C° 0.9 mm 8 mps 743 mmHg 81%
    09:00 +3°C° 0.9 mm 9 mps 741 mmHg 80%
    10:00 +3°C° 0.9 mm 9 mps 740 mmHg 79%
    11:00 +3°C° 1.2 mm 10 mps 738 mmHg 79%
    12:00 +3°C° 1.2 mm 10 mps 737 mmHg 79%
    13:00 +5°C° 1.2 mm 10 mps 735 mmHg 80%
    14:00 +5°C° 1.1 mm 10 mps 734 mmHg 81%
    15:00 +6°C° 1.1 mm 9 mps 733 mmHg 83%
    16:00 +7°C° 1.1 mm 8 mps 731 mmHg 85%
    17:00 +6°C° 0.4 mm 8 mps 731 mmHg 83%
    18:00 +6°C° 0.4 mm 7 mps 730 mmHg 80%
    19:00 +6°C° 0.4 mm 7 mps 730 mmHg 78%
    20:00 +6°C° 0.3 mm 7 mps 730 mmHg 78%
    21:00 +5°C° 0.3 mm 6 mps 730 mmHg 78%
    22:00 +5°C° 0.3 mm 6 mps 730 mmHg 78%
    23:00 +5°C° 0.7 mm 6 mps 730 mmHg 79%

    Tomorrow, 24 October, Wednesday

    Time Temperature Precipitation Wind Pressure Humidity
    00:00 +5°C° 0.7 mm 6 mps 729 mmHg 80%
    01:00 +5°C° 0.7 mm 5 mps 729 mmHg 81%
    02:00 +4°C° 1 mm 6 mps 729 mmHg 80%
    03:00 +4°C° 1 mm 7 mps 729 mmHg 78%
    04:00 +4°C° 1 mm 8 mps 730 mmHg 77%
    05:00 +2°C° 0.2 mm 8 mps 730 mmHg 75%
    06:00 +2°C° 0.2 mm 8 mps 731 mmHg 72%
    07:00 +1°C° 0.2 mm 8 mps 731 mmHg 69%
    08:00 +2°C° 0.1 mm 9 mps 732 mmHg 68%
    09:00 +2°C° 0.1 mm 10 mps 732 mmHg 67%
    10:00 +3°C° 0.1 mm 11 mps 733 mmHg 65%
    11:00 +3°C° 0.2 mm 12 mps 733 mmHg 66%
    12:00 +3°C° 0.2 mm 12 mps 734 mmHg 67%
    13:00 +4°C° 0.2 mm 12 mps 734 mmHg 67%
    14:00 +4°C° 0.2 mm 11 mps 735 mmHg 67%
    15:00 +3°C° 0.2 mm 11 mps 736 mmHg 68%
    16:00 +3°C° 0.2 mm 11 mps 737 mmHg 68%
    17:00 +3°C° 0.1 mm 10 mps 738 mmHg 68%
    18:00 +3°C° 0.1 mm 10 mps 738 mmHg 68%
    19:00 +3°C° 0.1 mm 9 mps 739 mmHg 68%
    20:00 +4°C° 0 mm 8 mps 740 mmHg 70%
    21:00 +3°C° 0 mm 7 mps 740 mmHg 71%
    22:00 +3°C° 0 mm 7 mps 741 mmHg 73%
    23:00 +3°C° 0 mm 6 mps 741 mmHg 75%

    Day after tomorrow, 25 October, Thursday

    Time Temperature Precipitation Wind Pressure Humidity
    00:00 +3°C° 0 mm 5 mps 741 mmHg 77%
    01:00 +2°C° 0 mm 5 mps 741 mmHg 79%
    02:00 +2°C° 0 mm 5 mps 741 mmHg 78%
    03:00 +2°C° 0 mm 5 mps 740 mmHg 77%
    04:00 +3°C° 0 mm 4 mps 740 mmHg 75%
    05:00 +3°C° 0.1 mm 4 mps 739 mmHg 77%
    06:00 +3°C° 0.1 mm 4 mps 739 mmHg 79%
    07:00 +1°C° 0.1 mm 4 mps 738 mmHg 80%
    08:00 +2°C° 0.9 mm 5 mps 737 mmHg 83%
    09:00 +3°C° 0.9 mm 5 mps 736 mmHg 85%
    10:00 +4°C° 0.9 mm 6 mps 735 mmHg 88%
    11:00 +5°C° 0.3 mm 7 mps 735 mmHg 81%
    12:00 +7°C° 0.3 mm 8 mps 734 mmHg 75%
    13:00 +8°C° 0.3 mm 9 mps 734 mmHg 68%
    14:00 +9°C° 0.2 mm 8 mps 734 mmHg 70%
    15:00 +8°C° 0.2 mm 7 mps 734 mmHg 72%
    16:00 +6°C° 0.2 mm 7 mps 734 mmHg 74%
    17:00 +7°C° 0.1 mm 6 mps 735 mmHg 77%
    18:00 +6°C° 0.1 mm 5 mps 735 mmHg 79%
    19:00 +5°C° 0.1 mm 5 mps 736 mmHg 82%
    20:00 +5°C° 0 mm 5 mps 736 mmHg 82%
    21:00 +5°C° 0 mm 5 mps 737 mmHg 82%
    22:00 +5°C° 0 mm 5 mps 737 mmHg 82%
    23:00 +5°C° 0 mm 5 mps 737 mmHg 83%

    26 October, Friday

    Time Temperature Precipitation Wind Pressure Humidity
    00:00 +5°C° 0 mm 5 mps 738 mmHg 84%
    01:00 +5°C° 0 mm 5 mps 738 mmHg 85%
    02:00 +3°C° 0 mm 5 mps 738 mmHg 85%
    03:00 +4°C° 0 mm 4 mps 739 mmHg 86%
    04:00 +4°C° 0 mm 4 mps 739 mmHg 87%
    05:00 +3°C° 0 mm 4 mps 739 mmHg 88%
    06:00 +3°C° 0 mm 3 mps 740 mmHg 90%
    07:00 +3°C° 0 mm 3 mps 740 mmHg 92%
    08:00 +4°C° 0 mm 3 mps 740 mmHg 87%
    09:00 +6°C° 0 mm 4 mps 740 mmHg 82%
    10:00 +7°C° 0 mm 4 mps 741 mmHg 78%
    11:00 +8°C° 0.1 mm 4 mps 740 mmHg 75%
    12:00 +8°C° 0.1 mm 5 mps 740 mmHg 72%
    13:00 +8°C° 0.1 mm 5 mps 740 mmHg 69%
    14:00 +8°C° 0 mm 4 mps 740 mmHg 71%
    15:00 +7°C° 0 mm 4 mps 740 mmHg 72%
    16:00 +8°C° 0 mm 3 mps 739 mmHg 73%
    17:00 +7°C° 0 mm 4 mps 739 mmHg 77%
    18:00 +7°C° 0 mm 5 mps 739 mmHg 80%
    19:00 +6°C° 0 mm 5 mps 738 mmHg 84%
    20:00 +7°C° 0.1 mm 5 mps 738 mmHg 85%
    21:00 +7°C° 0.1 mm 5 mps 737 mmHg 86%
    22:00 +8°C° 0.1 mm 5 mps 737 mmHg 88%
    23:00 +8°C° 0.1 mm 6 mps 737 mmHg 86%

    27 October, Saturday

    Time Temperature Precipitation Wind Pressure Humidity
    00:00 +8°C° 0.1 mm 6 mps 736 mmHg 85%
    01:00 +8°C° 0.1 mm 6 mps 736 mmHg 84%
    02:00 +7°C° 0 mm 6 mps 736 mmHg 83%
    03:00 +7°C° 0 mm 6 mps 735 mmHg 83%
    04:00 +5°C° 0 mm 7 mps 735 mmHg 82%
    05:00 +5°C° 0.1 mm 7 mps 735 mmHg 81%
    06:00 +5°C° 0.1 mm 7 mps 735 mmHg 80%
    07:00 +5°C° 0.1 mm 7 mps 735 mmHg 78%
    08:00 +6°C° 0 mm 7 mps 735 mmHg 74%
    09:00 +6°C° 0 mm 8 mps 735 mmHg 70%
    10:00 +6°C° 0 mm 9 mps 735 mmHg 66%
    11:00 +6°C° 0 mm 9 mps 736 mmHg 64%
    12:00 +6°C° 0 mm 9 mps 736 mmHg 61%
    13:00 +6°C° 0 mm 9 mps 737 mmHg 58%
    14:00 +6°C° 0 mm 7 mps 737 mmHg 62%
    15:00 +5°C° 0 mm 6 mps 738 mmHg 65%
    16:00 +6°C° 0 mm 5 mps 738 mmHg 69%
    17:00 +6°C° 0.1 mm 4 mps 739 mmHg 72%
    18:00 +5°C° 0.1 mm 3 mps 740 mmHg 75%
    19:00 +6°C° 0.1 mm 2 mps 740 mmHg 78%
    20:00 +5°C° 0 mm 2 mps 741 mmHg 80%
    21:00 +6°C° 0 mm 1 mps 742 mmHg 82%
    22:00 +5°C° 0 mm 1 mps 742 mmHg 84%
    23:00 +5°C° 0 mm 1 mps 742 mmHg 84%

    28 October, Sunday

    Time Temperature Precipitation Wind Pressure Humidity
    00:00 +5°C° 0 mm 1 mps 743 mmHg 84%
    01:00 +5°C° 0 mm 1 mps 743 mmHg 83%
    02:00 +5°C° 0 mm 1 mps 743 mmHg 82%
    03:00 +3°C° 0 mm 2 mps 743 mmHg 81%
    04:00 +3°C° 0 mm 2 mps 744 mmHg 80%
    05:00 +3°C° 0 mm 2 mps 744 mmHg 79%
    06:00 +3°C° 0 mm 2 mps 744 mmHg 77%
    07:00 +2°C° 0 mm 3 mps 745 mmHg 76%
    08:00 +3°C° 0 mm 3 mps 745 mmHg 73%
    09:00 +3°C° 0 mm 3 mps 745 mmHg 69%
    10:00 +4°C° 0 mm 4 mps 746 mmHg 66%
    11:00 +4°C° 0 mm 4 mps 746 mmHg 65%
    12:00 +5°C° 0 mm 4 mps 746 mmHg 64%
    13:00 +5°C° 0 mm 4 mps 746 mmHg 63%
    14:00 +4°C° 0 mm 4 mps 746 mmHg 65%
    15:00 +4°C° 0 mm 4 mps 746 mmHg 67%
    16:00 +4°C° 0 mm 4 mps 746 mmHg 69%
    17:00 +3°C° 0.1 mm 4 mps 746 mmHg 71%
    18:00 +2°C° 0.1 mm 5 mps 746 mmHg 73%
    19:00 +2°C° 0.1 mm 5 mps 746 mmHg 74%
    20:00 +1°C° 0.3 mm 6 mps 746 mmHg 74%
    21:00 +1°C° 0.3 mm 6 mps 745 mmHg 74%
    22:00 0°C° 0.3 mm 7 mps 745 mmHg 74%
    23:00 -1°C° 1 mm 7 mps 744 mmHg 77%

    29 October, Monday

    Time Temperature Precipitation Wind Pressure Humidity
    00:00 -1°C° 1 mm 7 mps 744 mmHg 81%
    01:00 -2°C° 1 mm 8 mps 743 mmHg 84%
    02:00 -2°C° 1.4 mm 8 mps 743 mmHg 86%
    03:00 -2°C° 1.4 mm 8 mps 742 mmHg 87%
    04:00 -3°C° 1.4 mm 9 mps 741 mmHg 89%
    05:00 -3°C° 1.4 mm 9 mps 741 mmHg 90%
    06:00 -3°C° 1.4 mm 9 mps 740 mmHg 91%
    07:00 -3°C° 1.4 mm 9 mps 740 mmHg 92%
    08:00 -2°C° 2.2 mm 8 mps 739 mmHg 93%
    09:00 -2°C° 2.2 mm 8 mps 739 mmHg 94%
    10:00 -2°C° 2.2 mm 8 mps 738 mmHg 95%
    11:00 -2°C° 1.4 mm 7 mps 738 mmHg 95%
    12:00 -2°C° 1.4 mm 7 mps 737 mmHg 96%
    13:00 -1°C° 1.4 mm 7 mps 737 mmHg 97%
    14:00 -1°C° 0.7 mm 7 mps 736 mmHg 97%
    15:00 -1°C° 0.7 mm 6 mps 735 mmHg 98%
    16:00 -1°C° 0.7 mm 6 mps 735 mmHg 98%
    17:00 +1°C° 0.7 mm 6 mps 734 mmHg 99%
    18:00 +2°C° 0.7 mm 5 mps 734 mmHg 99%
    19:00 +2°C° 0.7 mm 5 mps 734 mmHg 99%
    20:00 +4°C° 0.2 mm 4 mps 734 mmHg 99%
    21:00 +4°C° 0.2 mm 4 mps 733 mmHg 99%
    22:00 +5°C° 0.2 mm 3 mps 733 mmHg 99%
    23:00 +5°C° 0 mm 4 mps 733 mmHg 99%
    Show more